Location: Borderline Observatory
(42.7345°N, 72.8696°W)
Time: 13:23:10
(UTC-04:00)

Daily predictions for brighter satellites

Satellite Brightness Start Highest point End
(mag) Time Altitude Azimuth Time Altitude Azimuth Time Altitude Azimuth
SL-8 R/B 4.2 18:20:17 10° W 18:25:02 57° NNW 18:29:48 10° ENE
Cosmos 2058 2.9 18:21:26 10° N 18:25:38 81° E 18:29:46 10° S
Sich 1 4.4 18:23:54 10° NNE 18:27:01 19° ENE 18:30:08 10° ESE
Cosmos 44 3.1 18:22:57 10° SSW 18:27:15 61° ESE 18:31:32 10° NE
Ariane Rocket 3.6 18:23:09 10° S 18:28:13 66° WSW 18:33:19 10° NNW
Cosmos 2151 3.0 18:25:12 10° N 18:29:30 90° WSW 18:33:43 10° S
Cosmos 2322 4.0 18:26:05 10° NNW 18:31:49 78° WSW 18:37:30 10° SSE
BREEZE M DEB (TANK) 3.4 18:28:35 10° WNW 18:34:32 36° N 18:37:01 11° ENE
Cosmos 2219 Rocket 2.6 18:29:52 10° NNW 18:35:10 41° ENE 18:40:26 10° SE
METEOR-M 4.3 18:30:15 10° SSE 18:35:26 54° ENE 18:40:38 10° N
COSMO-SKYMED 1 2.9 18:32:15 10° NNE 18:36:24 42° E 18:40:31 10° S
EO 1 Del DPAF 3.4 18:32:57 10° NNE 18:36:43 50° E 18:40:26 10° S
Landsat 4 3.7 18:33:32 10° NNE 18:37:16 86° WNW 18:41:00 10° SSW
SMAP 3.7 18:34:36 10° S 18:39:12 61° W 18:43:49 10° NNW
CZ-4C R/B 2.2 18:37:37 10° SSW 18:42:41 61° ESE 18:48:29 10° NE
MTI 3.7 18:42:07 10° NNE 18:45:21 88° ESE 18:48:32 10° SSW
Cosmos 1805 Rocket 3.9 18:41:21 10° N 18:45:32 41° ENE 18:49:43 10° SSE
CZ-4 R/B 2.1 18:41:57 10° S 18:46:06 60° W 18:50:10 10° NNW
Meteor 1-28 Rocket 3.5 18:42:54 10° N 18:46:40 73° WNW 18:50:25 10° SSW
Abrixas rocket 3.3 18:46:16 10° WNW 18:49:17 32° N 18:51:25 16° ENE
Aureole 2 Rocket 2.8 18:51:05 10° NNW 18:55:00 59° ENE 18:59:02 10° SSE
Cosmos 1666 Rocket 4.1 18:51:07 10° N 18:55:05 33° ENE 18:58:59 10° SE
Cosmos 1269 Rocket 4.0 18:50:58 10° S 18:56:12 72° ESE 19:01:29 10° NNE
GRACE-2 3.8 18:53:53 10° S 18:56:26 76° W 18:59:00 10° N
YAOGAN 1 3.0 18:53:23 10° S 18:57:40 66° WSW 19:02:00 10° NNW
Cosmos 1633 Rocket 3.8 18:54:54 10° NNE 18:58:51 31° ENE 19:02:48 10° SE
Iridium 4 Rocket 3.8 18:54:25 10° SSE 19:00:02 65° E 19:05:54 10° N
Cosmos 1315 Rocket 3.7 18:56:12 10° NNW 19:00:14 55° W 19:04:15 10° S
BREEZE-M DEB (TANK) 0.9 18:59:05 10° WSW 19:01:07 80° NNW 19:02:13 25° ENE
GRACE-1 4.5 19:00:34 10° SSW 19:03:06 53° W 19:05:38 10° N
FREGAT/IRIS 4.1 19:05:34 20° NE 19:05:34 20° NE 19:07:08 10° NNE
Cosmos 2333 4.5 19:02:08 10° NNW 19:07:52 75° WSW 19:13:35 10° SSE
Cosmos 44 Rocket 3.7 19:03:48 10° SW 19:08:26 59° NW 19:13:06 10° NNE
Cosmos 494 Rocket 4.4 19:04:20 10° SSE 19:09:00 37° ESE 19:13:41 10° NE
Cosmos 2084 3.1 19:06:57 10° NNW 19:10:44 70° NE 19:13:41 16° SE
SPOT 3 Rocket 3.6 19:06:54 10° SSE 19:12:06 86° WSW 19:17:21 10° NNW
Cosmos 1908 4.4 19:08:23 10° SSW 19:12:09 47° WNW 19:15:56 10° N
Cosmos 2237 Rocket 2.5 19:08:29 10° NNW 19:13:58 45° ENE 19:18:22 15° SE
PSLV R/B 3.9 19:11:20 10° SW 19:14:14 35° SSE 19:15:01 30° SE
Cosmos 2221 3.1 19:10:06 10° SSW 19:14:23 62° W 19:18:43 10° N
Cosmos 1934 Rocket 4.0 19:08:15 10° S 19:14:29 59° E 19:20:43 10° NNE
Cosmos 1000 Rocket 4.5 19:08:38 10° N 19:14:54 89° W 19:21:03 10° S
Cosmos 1821 Rocket 3.9 19:11:54 10° S 19:18:04 83° E 19:24:23 10° N
Cosmos 1110 Rocket 4.0 19:14:57 10° NNW 19:20:15 63° ENE 19:25:27 10° SSE
SJ-6B 3.6 19:21:00 28° NE 19:21:00 28° NE 19:23:45 10° N
Cosmos 2227 Rocket 2.5 19:16:24 10° S 19:21:40 42° ESE 19:26:10 14° NE
H-2A R/B 3.1 19:20:16 24° SE 19:22:10 41° ENE 19:25:53 10° N
Cosmos 2239 Rocket 4.4 19:16:44 10° S 19:22:52 89° E 19:29:04 10° N
Lacrosse 5 rocket 3.7 19:21:05 10° NNW 19:22:54 12° N 19:24:21 11° NNE
SKYMED 2 4.3 19:20:14 10° N 19:24:30 56° WNW 19:28:45 10° SSW
SL-16 R/B 3.2 19:22:33 10° N 19:27:18 27° NE 19:28:01 26° ENE
Cosmos 2098 Rocket 3.8 19:22:49 10° SSW 19:27:40 75° W 19:33:55 10° N
USA 32 4.4 19:26:17 10° N 19:31:12 38° E 19:33:14 28° SE
Cosmos 1300 2.6 19:29:38 10° S 19:33:27 88° W 19:37:19 10° N
ATLAS 5 CENTAUR R/B 4.4 19:32:53 10° N 19:34:17 11° NNE 19:35:40 10° NNE
Gbstr 26 Del rocket 4.4 19:33:46 10° WNW 19:38:40 50° SW 19:43:46 14° SSE
Cosmos 1980 3.6 19:33:05 10° NNW 19:38:46 75° ENE 19:43:00 18° SSE
ALOS 2.7 19:35:15 10° S 19:39:52 62° W 19:44:31 10° NNW
FENGYUN 3A 4.0 19:36:53 10° S 19:42:14 67° WSW 19:47:40 10° NNW
Meteor 2-10 4.0 19:39:35 10° SSW 19:44:38 81° W 19:49:50 10° N
Envisat 4.1 19:47:50 26° NE 19:47:50 26° NE 19:50:49 10° N
Cosmos 2123 Rocket 4.0 19:42:29 10° N 19:48:46 86° W 19:55:04 10° S
SWAS 4.3 19:45:01 10° SSW 19:49:16 88° WNW 19:50:52 38° NNE
COSMOS 2428 4.5 19:45:41 10° NW 19:50:38 32° WSW 19:55:35 10° SSW
Cosmos 2251 Rocket 3.4 19:45:48 10° S 19:51:01 66° ESE 19:54:10 25° NNE
Meteor 2-3 Rocket 3.8 19:46:26 10° N 19:52:05 53° ENE 19:53:21 44° ESE
Cosmos 1605 Rocket 3.8 19:46:35 10° S 19:52:39 79° E 19:58:45 10° N
Cosmos 2333 Rocket 2.8 19:47:59 10° NNW 19:53:38 59° WSW 19:59:16 10° S
Cosmos 1470 Rocket 3.6 19:49:16 10° N 19:53:14 57° NE 19:53:14 57° NE
Cosmos 967 Rocket 4.4 19:47:20 10° NNW 19:53:49 72° NE 19:56:29 37° SE
Cosmos 2219 4.4 19:48:40 10° SW 19:54:05 42° WNW 19:59:32 10° NNE
NOSS 0 Rocket 4.2 19:49:45 10° NNW 19:55:52 66° WSW 20:01:55 10° SSE
Cosmos 2297 Rocket 2.0 19:53:01 10° SSW 19:58:37 70° ESE 20:00:56 36° NE
Cosmos 1726 4.4 19:55:53 10° SW 19:59:00 26° WNW 20:02:08 10° NNW
Cosmos 1153 Rocket 4.4 19:53:25 10° S 19:59:26 61° E 20:05:33 10° NNE
Hubble Space Telescope 3.4 20:00:04 10° SSW 20:00:30 11° S 20:00:30 11° S
USA 267 4.2 20:04:43 29° SSE 20:04:43 29° SSE 20:09:02 10° S
Sich 1 4.4 20:00:46 10° NNW 20:04:52 39° W 20:08:59 10° SSW
SL-8 R/B 4.4 20:03:34 10° WNW 20:08:09 42° N 20:08:21 42° N
Meteor 2-17 Rocket 4.3 20:02:16 10° S 20:08:14 65° E 20:14:16 10° NNE
Cosmos 2082 3.6 20:04:21 10° SSW 20:10:04 84° ESE 20:12:12 41° NNE
Thor Agena Rocket 3.9 20:05:45 10° N 20:10:45 60° WNW 20:15:42 10° SSW
Resurs 01 Rocket 3.5 20:21:17 21° N 20:21:17 21° N 20:22:50 10° N
Cosmos 2219 Rocket 4.0 20:14:08 10° NW 20:18:55 30° WSW 20:23:43 10° SSW
Cosmos 1447 Rocket 4.5 20:19:36 10° N 20:25:57 81° W 20:29:04 32° S
BREEZE-M DEB (TANK) 3.3 20:23:44 10° WNW 20:29:58 57° NW 20:29:58 57° NW
CZ-4C R/B 4.0 20:27:03 10° W 20:31:41 27° NW 20:35:48 14° NNE
Cosmos 2228 Rocket 4.1 20:30:12 10° SSW 20:38:12 15° N 20:39:00 10° N
USA 234 4.2 20:39:19 34° NNE 20:39:23 34° NNE 20:45:09 10° NW
Cosmos 2237 Rocket 4.0 20:53:03 10° NW 20:57:46 27° WSW 21:00:17 20° SW
Lacrosse 5 rocket 4.4 20:59:58 10° NNW 21:00:02 10° NNW 21:00:02 10° NNW
Cosmos 2227 Rocket 3.8 21:00:51 10° WSW 21:05:50 31° NW 21:08:05 23° NNW
SL-16 R/B 3.5 21:06:12 10° NW 21:09:56 37° WNW 21:09:56 37° WNW
ATLAS 5 CENTAUR R/B 4.4 21:15:40 10° NNW 21:17:12 17° N 21:17:12 17° N
Cosmos 2297 Rocket 4.4 21:39:05 10° W 21:42:52 20° NW 21:42:52 20° NW
